• In Hungary
  • List of Countries
  • For 7 days
  • Water Temperature
  • Satellite Maps
  • Weather Map
  • News
  • Weather Widgets
  • user-avatar
    Login

    Hourly Weather Allentown

    Today, 25 February, Sunday

    Time Temperature Precipitation Wind Pressure Humidity
    00:00 +5°C° 0 mm 3 mps 757 mmHg 92%
    01:00 +5°C° 0 mm 3 mps 756 mmHg 93%
    02:00 +5°C° 2.7 mm 4 mps 756 mmHg 93%
    03:00 +5°C° 2.7 mm 4 mps 755 mmHg 93%
    04:00 +5°C° 2.7 mm 4 mps 755 mmHg 93%
    05:00 +5°C° 3.2 mm 5 mps 754 mmHg 93%
    06:00 +5°C° 3.2 mm 5 mps 753 mmHg 93%
    07:00 +4°C° 3.2 mm 6 mps 752 mmHg 93%
    08:00 +5°C° 3.2 mm 5 mps 752 mmHg 94%
    09:00 +6°C° 3.2 mm 4 mps 752 mmHg 95%
    10:00 +7°C° 3.2 mm 3 mps 751 mmHg 96%
    11:00 +8°C° 0.7 mm 3 mps 751 mmHg 96%
    12:00 +8°C° 0.7 mm 2 mps 750 mmHg 96%
    13:00 +10°C° 0.7 mm 1 mps 750 mmHg 96%
    14:00 +10°C° 0.2 mm 1 mps 750 mmHg 96%
    15:00 +10°C° 0.2 mm 1 mps 750 mmHg 96%
    16:00 +11°C° 0.2 mm 1 mps 750 mmHg 96%
    17:00 +11°C° 0 mm 1 mps 751 mmHg 94%
    18:00 +10°C° 0 mm 1 mps 751 mmHg 92%
    19:00 +9°C° 0 mm 2 mps 752 mmHg 90%
    20:00 +9°C° 0 mm 2 mps 752 mmHg 87%
    21:00 +8°C° 0 mm 2 mps 753 mmHg 84%
    22:00 +7°C° 0 mm 2 mps 753 mmHg 81%
    23:00 +7°C° 0 mm 2 mps 754 mmHg 81%

    Tomorrow, 26 February, Monday

    Time Temperature Precipitation Wind Pressure Humidity
    00:00 +7°C° 0 mm 2 mps 754 mmHg 82%
    01:00 +7°C° 0 mm 2 mps 754 mmHg 82%
    02:00 +6°C° 0 mm 2 mps 755 mmHg 82%
    03:00 +6°C° 0 mm 2 mps 755 mmHg 83%
    04:00 +5°C° 0 mm 2 mps 755 mmHg 83%
    05:00 +5°C° 0 mm 2 mps 755 mmHg 83%
    06:00 +4°C° 0 mm 2 mps 756 mmHg 82%
    07:00 +4°C° 0 mm 2 mps 756 mmHg 82%
    08:00 +5°C° 0 mm 2 mps 756 mmHg 75%
    09:00 +5°C° 0 mm 3 mps 757 mmHg 68%
    10:00 +7°C° 0 mm 3 mps 757 mmHg 61%
    11:00 +8°C° 0 mm 3 mps 757 mmHg 56%
    12:00 +8°C° 0 mm 4 mps 757 mmHg 51%
    13:00 +11°C° 0 mm 4 mps 757 mmHg 47%
    14:00 +11°C° 0 mm 4 mps 757 mmHg 46%
    15:00 +11°C° 0 mm 4 mps 757 mmHg 44%
    16:00 +11°C° 0 mm 4 mps 757 mmHg 43%
    17:00 +8°C° 0 mm 4 mps 757 mmHg 48%
    18:00 +8°C° 0 mm 3 mps 758 mmHg 53%
    19:00 +6°C° 0 mm 2 mps 759 mmHg 58%
    20:00 +6°C° 0 mm 2 mps 759 mmHg 59%
    21:00 +5°C° 0 mm 2 mps 760 mmHg 61%
    22:00 +4°C° 0 mm 2 mps 761 mmHg 63%
    23:00 +4°C° 0 mm 2 mps 761 mmHg 64%

    Day after tomorrow, 27 February, Tuesday

    Time Temperature Precipitation Wind Pressure Humidity
    00:00 +3°C° 0 mm 2 mps 761 mmHg 66%
    01:00 +2°C° 0 mm 2 mps 761 mmHg 67%
    02:00 +2°C° 0 mm 2 mps 762 mmHg 69%
    03:00 +1°C° 0 mm 2 mps 762 mmHg 70%
    04:00 +2°C° 0 mm 1 mps 762 mmHg 72%
    05:00 +2°C° 0 mm 1 mps 763 mmHg 72%
    06:00 +2°C° 0 mm 1 mps 763 mmHg 72%
    07:00 +2°C° 0 mm 1 mps 764 mmHg 73%
    08:00 +4°C° 0 mm 1 mps 764 mmHg 64%
    09:00 +6°C° 0 mm 1 mps 764 mmHg 56%
    10:00 +8°C° 0 mm 1 mps 764 mmHg 48%
    11:00 +8°C° 0 mm 2 mps 763 mmHg 45%
    12:00 +9°C° 0 mm 2 mps 763 mmHg 42%
    13:00 +12°C° 0 mm 2 mps 762 mmHg 39%
    14:00 +12°C° 0 mm 2 mps 762 mmHg 40%
    15:00 +12°C° 0 mm 2 mps 761 mmHg 42%
    16:00 +12°C° 0 mm 2 mps 761 mmHg 44%
    17:00 +9°C° 0 mm 2 mps 760 mmHg 50%
    18:00 +8°C° 0 mm 2 mps 760 mmHg 57%
    19:00 +7°C° 0 mm 1 mps 760 mmHg 64%
    20:00 +7°C° 0 mm 1 mps 760 mmHg 66%
    21:00 +5°C° 0 mm 2 mps 760 mmHg 67%
    22:00 +5°C° 0 mm 2 mps 760 mmHg 69%
    23:00 +4°C° 0 mm 2 mps 759 mmHg 69%

    28 February, Wednesday

    Time Temperature Precipitation Wind Pressure Humidity
    00:00 +4°C° 0 mm 2 mps 759 mmHg 68%
    01:00 +4°C° 0 mm 1 mps 758 mmHg 68%
    02:00 +3°C° 0 mm 2 mps 758 mmHg 68%
    03:00 +3°C° 0 mm 2 mps 758 mmHg 68%
    04:00 +3°C° 0 mm 2 mps 757 mmHg 68%
    05:00 +3°C° 0 mm 2 mps 757 mmHg 69%
    06:00 +3°C° 0 mm 2 mps 757 mmHg 71%
    07:00 +4°C° 0 mm 1 mps 757 mmHg 73%
    08:00 +4°C° 0 mm 2 mps 756 mmHg 70%
    09:00 +6°C° 0 mm 2 mps 756 mmHg 68%
    10:00 +7°C° 0 mm 2 mps 756 mmHg 65%
    11:00 +8°C° 0 mm 2 mps 755 mmHg 64%
    12:00 +9°C° 0 mm 3 mps 755 mmHg 63%
    13:00 +10°C° 0 mm 3 mps 754 mmHg 63%
    14:00 +12°C° 0 mm 2 mps 753 mmHg 63%
    15:00 +12°C° 0 mm 2 mps 753 mmHg 64%
    16:00 +12°C° 0 mm 2 mps 752 mmHg 65%
    17:00 +10°C° 0 mm 2 mps 753 mmHg 71%
    18:00 +9°C° 0 mm 2 mps 753 mmHg 76%
    19:00 +8°C° 0 mm 1 mps 753 mmHg 82%
    20:00 +8°C° 0 mm 1 mps 753 mmHg 83%
    21:00 +8°C° 0 mm 1 mps 753 mmHg 84%
    22:00 +8°C° 0 mm 1 mps 753 mmHg 85%
    23:00 +8°C° 0.1 mm 1 mps 753 mmHg 87%

    1 March, Thursday

    Time Temperature Precipitation Wind Pressure Humidity
    00:00 +8°C° 0.1 mm 1 mps 752 mmHg 88%
    01:00 +7°C° 0.1 mm 0 mps 752 mmHg 90%
    02:00 +8°C° 0.2 mm 1 mps 752 mmHg 91%
    03:00 +8°C° 0.2 mm 1 mps 751 mmHg 93%
    04:00 +8°C° 0.2 mm 1 mps 751 mmHg 95%
    05:00 +7°C° 0.8 mm 2 mps 750 mmHg 95%
    06:00 +7°C° 0.8 mm 2 mps 750 mmHg 96%
    07:00 +7°C° 0.8 mm 3 mps 750 mmHg 96%
    08:00 +7°C° 1.6 mm 3 mps 750 mmHg 96%
    09:00 +7°C° 1.6 mm 4 mps 749 mmHg 95%
    10:00 +7°C° 1.6 mm 5 mps 749 mmHg 95%
    11:00 +8°C° 1.4 mm 5 mps 748 mmHg 94%
    12:00 +8°C° 1.4 mm 6 mps 747 mmHg 93%
    13:00 +8°C° 1.4 mm 7 mps 746 mmHg 92%
    14:00 +8°C° 0.4 mm 6 mps 745 mmHg 93%
    15:00 +8°C° 0.4 mm 6 mps 744 mmHg 93%
    16:00 +9°C° 0.4 mm 5 mps 743 mmHg 94%
    17:00 +9°C° 2.3 mm 5 mps 743 mmHg 94%
    18:00 +9°C° 2.3 mm 6 mps 742 mmHg 94%
    19:00 +9°C° 2.3 mm 6 mps 741 mmHg 94%
    20:00 +9°C° 3.4 mm 6 mps 740 mmHg 94%
    21:00 +8°C° 3.4 mm 6 mps 739 mmHg 94%
    22:00 +8°C° 3.4 mm 6 mps 738 mmHg 94%
    23:00 +8°C° 3.3 mm 5 mps 737 mmHg 94%

    2 March, Friday

    Time Temperature Precipitation Wind Pressure Humidity
    00:00 +8°C° 3.3 mm 4 mps 736 mmHg 95%
    01:00 +9°C° 3.3 mm 3 mps 736 mmHg 95%
    02:00 +8°C° 0.8 mm 3 mps 735 mmHg 93%
    03:00 +7°C° 0.8 mm 4 mps 735 mmHg 92%
    04:00 +7°C° 0.8 mm 4 mps 735 mmHg 91%
    05:00 +6°C° 0.2 mm 4 mps 735 mmHg 90%
    06:00 +6°C° 0.2 mm 4 mps 735 mmHg 89%
    07:00 +6°C° 0.2 mm 4 mps 735 mmHg 87%
    08:00 +6°C° 0.4 mm 5 mps 735 mmHg 86%
    09:00 +6°C° 0.4 mm 5 mps 735 mmHg 84%
    10:00 +5°C° 0.4 mm 6 mps 735 mmHg 82%
    11:00 +5°C° 0.6 mm 6 mps 736 mmHg 80%
    12:00 +5°C° 0.6 mm 7 mps 736 mmHg 79%
    13:00 +5°C° 0.6 mm 7 mps 737 mmHg 77%
    14:00 +5°C° 0.5 mm 7 mps 738 mmHg 76%
    15:00 +4°C° 0.5 mm 7 mps 739 mmHg 76%
    16:00 +4°C° 0.5 mm 7 mps 740 mmHg 75%
    17:00 +3°C° 0.2 mm 7 mps 742 mmHg 76%
    18:00 +3°C° 0.2 mm 7 mps 744 mmHg 76%
    19:00 +2°C° 0.2 mm 6 mps 745 mmHg 76%
    20:00 +2°C° 0.1 mm 6 mps 746 mmHg 76%
    21:00 +1°C° 0.1 mm 6 mps 747 mmHg 76%
    22:00 +1°C° 0.1 mm 6 mps 748 mmHg 76%
    23:00 +1°C° 0 mm 6 mps 748 mmHg 75%
    Show more